Location: Bluff Heights
(33.7692°N, 118.1592°W)
Time: 17:12:28
(UTC+00:00)

XW-2B - Pass Details

Date: 27 September 2021
Orbit: 503 x 524 km, 97.5° (Epoch: 26 October)

Event Time Altitude Azimuth Distance (km) Brightness Sun altitude
Rises 12:49:02 0° 36° (NE) 2,618 ? -12.3°
Reaches altitude 10° 12:52:11 10° 66° (ENE) 1,722 ? -11.7°
Maximum altitude 12:53:53 13° 93° (E) 1,553 ? -11.3°
Drops below altitude 10° 12:55:33 10° 121° (ESE) 1,712 ? -11.0°
Sets 12:58:40 0° 151° (SSE) 2,587 ? -10.3°
